When you browse on this site, cookies collect data to enhance your experience and personalize the content and advertising you see.
Visit our Privacy Policy to learn more. By continuing to use the site, you agree to this use of cookies and data.
  • en Belgique
  • Liste des pays
  • À 7 jours
  • Température de l'eau
  • Carte satellitaire
  • Carte météo
  • Widgets météo
  • user-avatar
    Se connecter

    Météo par heure à Galata

    Ce jour, 26 Juin, Mercredi

    Heure Température Précipitation Vent Pression Humidité
    00:00 +22°C° 0.1 mm 5 m/s 758 mmHg 81%
    01:00 +22°C° 0.1 mm 6 m/s 758 mmHg 82%
    02:00 +22°C° 0.1 mm 6 m/s 758 mmHg 84%
    03:00 +22°C° 0 mm 6 m/s 758 mmHg 84%
    04:00 +22°C° 0 mm 6 m/s 758 mmHg 83%
    05:00 +22°C° 0 mm 6 m/s 758 mmHg 83%
    06:00 +23°C° 0 mm 7 m/s 758 mmHg 79%
    07:00 +26°C° 0 mm 7 m/s 759 mmHg 75%
    08:00 +27°C° 0 mm 8 m/s 759 mmHg 71%
    09:00 +28°C° 0.3 mm 8 m/s 759 mmHg 66%
    10:00 +31°C° 0.3 mm 8 m/s 759 mmHg 60%
    11:00 +32°C° 0.3 mm 8 m/s 759 mmHg 55%
    12:00 +32°C° 0.2 mm 8 m/s 759 mmHg 54%
    13:00 +32°C° 0.2 mm 9 m/s 759 mmHg 53%
    14:00 +32°C° 0.2 mm 9 m/s 759 mmHg 53%
    15:00 +32°C° 0 mm 8 m/s 759 mmHg 55%
    16:00 +31°C° 0 mm 8 m/s 759 mmHg 56%
    17:00 +30°C° 0 mm 7 m/s 758 mmHg 58%
    18:00 +28°C° 0 mm 7 m/s 758 mmHg 67%
    19:00 +26°C° 0 mm 6 m/s 758 mmHg 75%
    20:00 +25°C° 0 mm 5 m/s 758 mmHg 84%
    21:00 +23°C° 0 mm 4 m/s 758 mmHg 86%
    22:00 +22°C° 0 mm 4 m/s 758 mmHg 89%
    23:00 +22°C° 0 mm 3 m/s 758 mmHg 92%

    Demain, 27 Juin, Jeudi

    Heure Température Précipitation Vent Pression Humidité
    00:00 +21°C° 0 mm 3 m/s 758 mmHg 92%
    01:00 +21°C° 0 mm 3 m/s 758 mmHg 92%
    02:00 +20°C° 0 mm 4 m/s 758 mmHg 92%
    03:00 +20°C° 0 mm 3 m/s 758 mmHg 92%
    04:00 +20°C° 0 mm 3 m/s 757 mmHg 92%
    05:00 +20°C° 0 mm 3 m/s 757 mmHg 92%
    06:00 +22°C° 0 mm 3 m/s 757 mmHg 81%
    07:00 +25°C° 0 mm 3 m/s 757 mmHg 70%
    08:00 +27°C° 0 mm 3 m/s 757 mmHg 59%
    09:00 +28°C° 0 mm 3 m/s 757 mmHg 53%
    10:00 +29°C° 0 mm 3 m/s 756 mmHg 47%
    11:00 +31°C° 0 mm 2 m/s 756 mmHg 41%
    12:00 +31°C° 0 mm 3 m/s 755 mmHg 41%
    13:00 +33°C° 0 mm 3 m/s 755 mmHg 41%
    14:00 +33°C° 0 mm 3 m/s 754 mmHg 41%
    15:00 +33°C° 0 mm 3 m/s 754 mmHg 43%
    16:00 +31°C° 0 mm 2 m/s 753 mmHg 45%
    17:00 +31°C° 0 mm 2 m/s 753 mmHg 46%
    18:00 +29°C° 0 mm 2 m/s 752 mmHg 55%
    19:00 +27°C° 0 mm 3 m/s 752 mmHg 63%
    20:00 +25°C° 0 mm 3 m/s 752 mmHg 72%
    21:00 +24°C° 0 mm 3 m/s 752 mmHg 73%
    22:00 +22°C° 0 mm 3 m/s 752 mmHg 75%
    23:00 +22°C° 0 mm 3 m/s 751 mmHg 76%

    Après-demain, 28 Juin, Vendredi

    Heure Température Précipitation Vent Pression Humidité
    00:00 +22°C° 0 mm 3 m/s 751 mmHg 77%
    01:00 +22°C° 0 mm 3 m/s 751 mmHg 77%
    02:00 +22°C° 0 mm 3 m/s 750 mmHg 78%
    03:00 +22°C° 0.3 mm 3 m/s 750 mmHg 83%
    04:00 +21°C° 0.3 mm 4 m/s 750 mmHg 87%
    05:00 +21°C° 0.3 mm 4 m/s 750 mmHg 92%
    06:00 +22°C° 0.3 mm 5 m/s 750 mmHg 87%
    07:00 +23°C° 0.3 mm 5 m/s 750 mmHg 82%
    08:00 +24°C° 0.3 mm 6 m/s 751 mmHg 77%
    09:00 +24°C° 0 mm 6 m/s 751 mmHg 70%
    10:00 +26°C° 0 mm 6 m/s 751 mmHg 63%
    11:00 +26°C° 0 mm 6 m/s 751 mmHg 56%
    12:00 +26°C° 0.1 mm 5 m/s 752 mmHg 55%
    13:00 +26°C° 0.1 mm 4 m/s 752 mmHg 54%
    14:00 +27°C° 0.1 mm 3 m/s 752 mmHg 53%
    15:00 +26°C° 0 mm 3 m/s 752 mmHg 54%
    16:00 +26°C° 0 mm 2 m/s 752 mmHg 55%
    17:00 +25°C° 0 mm 2 m/s 752 mmHg 56%
    18:00 +25°C° 0 mm 3 m/s 752 mmHg 58%
    19:00 +23°C° 0 mm 4 m/s 753 mmHg 59%
    20:00 +22°C° 0 mm 4 m/s 753 mmHg 60%
    21:00 +21°C° 0 mm 5 m/s 753 mmHg 58%
    22:00 +21°C° 0 mm 6 m/s 754 mmHg 55%
    23:00 +20°C° 0 mm 7 m/s 754 mmHg 53%

    29 Juin, Samedi

    Heure Température Précipitation Vent Pression Humidité
    00:00 +20°C° 0 mm 7 m/s 754 mmHg 52%
    01:00 +20°C° 0 mm 6 m/s 754 mmHg 52%
    02:00 +19°C° 0 mm 6 m/s 754 mmHg 52%
    03:00 +17°C° 0 mm 5 m/s 754 mmHg 56%
    04:00 +17°C° 0 mm 5 m/s 754 mmHg 60%
    05:00 +17°C° 0 mm 4 m/s 754 mmHg 65%
    06:00 +17°C° 0 mm 5 m/s 755 mmHg 61%
    07:00 +19°C° 0 mm 5 m/s 755 mmHg 57%
    08:00 +21°C° 0 mm 6 m/s 755 mmHg 54%
    09:00 +22°C° 0 mm 6 m/s 756 mmHg 50%
    10:00 +23°C° 0 mm 6 m/s 756 mmHg 46%
    11:00 +24°C° 0 mm 6 m/s 756 mmHg 42%
    12:00 +24°C° 0 mm 6 m/s 756 mmHg 43%
    13:00 +24°C° 0 mm 6 m/s 755 mmHg 44%
    14:00 +25°C° 0 mm 5 m/s 755 mmHg 44%
    15:00 +25°C° 0 mm 5 m/s 755 mmHg 44%
    16:00 +25°C° 0 mm 5 m/s 755 mmHg 45%
    17:00 +25°C° 0 mm 4 m/s 755 mmHg 45%
    18:00 +23°C° 0 mm 5 m/s 755 mmHg 50%
    19:00 +21°C° 0 mm 5 m/s 755 mmHg 55%
    20:00 +20°C° 0 mm 6 m/s 755 mmHg 61%
    21:00 +19°C° 0.1 mm 6 m/s 756 mmHg 65%
    22:00 +17°C° 0.1 mm 5 m/s 756 mmHg 69%
    23:00 +16°C° 0.1 mm 5 m/s 756 mmHg 73%

    30 Juin, Dimanche

    Heure Température Précipitation Vent Pression Humidité
    00:00 +15°C° 0 mm 5 m/s 757 mmHg 74%
    01:00 +15°C° 0 mm 5 m/s 757 mmHg 76%
    02:00 +14°C° 0 mm 5 m/s 757 mmHg 78%
    03:00 +14°C° 0 mm 5 m/s 757 mmHg 79%
    04:00 +13°C° 0 mm 5 m/s 757 mmHg 80%
    05:00 +13°C° 0 mm 5 m/s 757 mmHg 81%
    06:00 +14°C° 0 mm 6 m/s 757 mmHg 71%
    07:00 +16°C° 0 mm 6 m/s 758 mmHg 62%
    08:00 +19°C° 0 mm 6 m/s 758 mmHg 53%
    09:00 +21°C° 0 mm 6 m/s 758 mmHg 49%
    10:00 +22°C° 0 mm 6 m/s 759 mmHg 44%
    11:00 +24°C° 0 mm 6 m/s 759 mmHg 40%
    12:00 +25°C° 0 mm 5 m/s 759 mmHg 41%
    13:00 +25°C° 0 mm 5 m/s 759 mmHg 42%
    14:00 +25°C° 0 mm 5 m/s 758 mmHg 43%
    15:00 +25°C° 0 mm 5 m/s 758 mmHg 44%
    16:00 +25°C° 0 mm 5 m/s 758 mmHg 44%
    17:00 +25°C° 0 mm 5 m/s 758 mmHg 44%
    18:00 +23°C° 0 mm 5 m/s 758 mmHg 48%
    19:00 +22°C° 0 mm 5 m/s 758 mmHg 52%
    20:00 +21°C° 0 mm 5 m/s 758 mmHg 56%
    21:00 +20°C° 0 mm 4 m/s 759 mmHg 60%
    22:00 +19°C° 0 mm 4 m/s 759 mmHg 63%
    23:00 +18°C° 0 mm 4 m/s 759 mmHg 67%

    1 Juillet, Lundi

    Heure Température Précipitation Vent Pression Humidité
    00:00 +17°C° 0 mm 4 m/s 759 mmHg 69%
    01:00 +17°C° 0 mm 4 m/s 759 mmHg 71%
    02:00 +17°C° 0 mm 3 m/s 759 mmHg 73%
    03:00 +16°C° 0 mm 3 m/s 758 mmHg 74%
    04:00 +16°C° 0 mm 3 m/s 758 mmHg 74%
    05:00 +16°C° 0 mm 3 m/s 758 mmHg 75%
    06:00 +18°C° 0 mm 3 m/s 758 mmHg 67%
    07:00 +21°C° 0 mm 2 m/s 758 mmHg 60%
    08:00 +24°C° 0 mm 2 m/s 758 mmHg 52%
    09:00 +26°C° 0 mm 2 m/s 758 mmHg 49%
    10:00 +27°C° 0 mm 2 m/s 758 mmHg 46%
    11:00 +28°C° 0 mm 2 m/s 758 mmHg 43%
    12:00 +29°C° 0 mm 2 m/s 758 mmHg 43%
    13:00 +30°C° 0 mm 3 m/s 758 mmHg 42%
    14:00 +30°C° 0 mm 3 m/s 758 mmHg 42%
    15:00 +30°C° 0 mm 4 m/s 757 mmHg 44%
    16:00 +29°C° 0 mm 4 m/s 757 mmHg 47%
    17:00 +28°C° 0 mm 4 m/s 757 mmHg 50%
    18:00 +26°C° 0 mm 4 m/s 757 mmHg 57%
    19:00 +25°C° 0 mm 3 m/s 757 mmHg 64%
    20:00 +22°C° 0 mm 3 m/s 757 mmHg 71%
    21:00 +21°C° 0 mm 3 m/s 757 mmHg 74%
    22:00 +21°C° 0 mm 3 m/s 757 mmHg 77%
    23:00 +20°C° 0 mm 3 m/s 757 mmHg 80%
    Voir plus